Location: Bakhuizen
(52.8696°N, 5.4575°E)
Time: 19:53:56
(UTC+00:00)

SPOT 5 - Pass Details

Date: 11 May 2021
Orbit: 623 x 815 km, 98.2° (Epoch: 18 June)

Event Time Altitude Azimuth Distance (km) Brightness Sun altitude
Exits shadow 19:59:16 - 127° (SE) 2,633 5.1 -5.2°
Reaches altitude 10° 20:00:09 10° 122° (ESE) 2,322 4.8 -5.3°
Maximum altitude 20:04:41 33° 61° (ENE) 1,329 4.1 -5.8°
Drops below altitude 10° 20:09:23 10° 359° (N) 2,406 6.2 -6.4°
Sets 20:11:57 0° 350° (N) 3,351 7.2 -6.7°
